Year,Month,Day,Hour,Minute,Value (Times are PST for temperature in C)
2008,06,19,00,00,8.20
2008,06,19,00,01,8.20
2008,06,19,00,02,8.20
2008,06,19,00,03,8.20
2008,06,19,00,04,8.20
2008,06,19,00,05,8.20
2008,06,19,00,06,8.20
2008,06,19,00,07,8.20
2008,06,19,00,08,8.10
2008,06,19,00,09,8.10
2008,06,19,00,10,8.10
2008,06,19,00,11,8.10
2008,06,19,00,12,8.10
2008,06,19,00,13,8.10
2008,06,19,00,14,8.10
2008,06,19,00,15,8.10
2008,06,19,00,16,8.10
2008,06,19,00,17,8.00
2008,06,19,00,18,8.00
2008,06,19,00,19,8.00
2008,06,19,00,20,8.00
2008,06,19,00,21,8.00
2008,06,19,00,22,7.90
2008,06,19,00,23,7.90
2008,06,19,00,24,7.90
2008,06,19,00,25,7.90
2008,06,19,00,26,7.90
2008,06,19,00,27,7.90
2008,06,19,00,28,7.90
2008,06,19,00,29,7.90
2008,06,19,00,30,7.90
2008,06,19,00,31,7.80
2008,06,19,00,32,7.80
2008,06,19,00,33,7.80
2008,06,19,00,34,7.80
2008,06,19,00,35,7.80
2008,06,19,00,36,7.80
2008,06,19,00,37,7.80
2008,06,19,00,38,7.70
2008,06,19,00,39,7.70
2008,06,19,00,40,7.70
2008,06,19,00,41,7.70
2008,06,19,00,42,7.70
2008,06,19,00,43,7.70
2008,06,19,00,44,7.60
2008,06,19,00,45,7.60
2008,06,19,00,46,7.60
2008,06,19,00,47,7.60
2008,06,19,00,48,7.60
2008,06,19,00,49,7.50
2008,06,19,00,50,7.50
2008,06,19,00,51,7.50
2008,06,19,00,52,7.50
2008,06,19,00,53,7.40
2008,06,19,00,54,7.40
2008,06,19,00,55,7.40
2008,06,19,00,56,7.30
2008,06,19,00,57,7.30
2008,06,19,00,58,7.30
2008,06,19,00,59,7.30
2008,06,19,01,00,7.30
2008,06,19,01,01,7.30
2008,06,19,01,02,7.30
2008,06,19,01,03,7.30
2008,06,19,01,04,7.20
2008,06,19,01,05,7.20
2008,06,19,01,06,7.20
2008,06,19,01,07,7.20
2008,06,19,01,08,7.20
2008,06,19,01,09,7.10
2008,06,19,01,10,7.10
2008,06,19,01,11,7.10
2008,06,19,01,12,7.10
2008,06,19,01,13,7.10
2008,06,19,01,14,7.10
2008,06,19,01,15,7.10
2008,06,19,01,16,7.10
2008,06,19,01,17,7.10
2008,06,19,01,18,7.10
2008,06,19,01,19,7.10
2008,06,19,01,20,7.10
2008,06,19,01,21,7.10
2008,06,19,01,22,7.10
2008,06,19,01,23,7.10
2008,06,19,01,24,7.10
2008,06,19,01,25,7.10
2008,06,19,01,26,7.10
2008,06,19,01,27,7.10
2008,06,19,01,28,7.10
2008,06,19,01,29,7.10
2008,06,19,01,30,7.10
2008,06,19,01,31,7.10
2008,06,19,01,32,7.10
2008,06,19,01,33,7.10
2008,06,19,01,34,7.10
2008,06,19,01,35,7.10
2008,06,19,01,36,7.10
2008,06,19,01,37,7.10
2008,06,19,01,38,7.10
2008,06,19,01,39,7.10
2008,06,19,01,40,7.10
2008,06,19,01,41,7.20
2008,06,19,01,42,7.20
2008,06,19,01,43,7.20
2008,06,19,01,44,7.20
2008,06,19,01,45,7.20
2008,06,19,01,46,7.20
2008,06,19,01,47,7.20
2008,06,19,01,48,7.20
2008,06,19,01,49,7.20
2008,06,19,01,50,7.20
2008,06,19,01,51,7.20
2008,06,19,01,52,7.20
2008,06,19,01,53,7.20
2008,06,19,01,54,7.20
2008,06,19,01,55,7.20
2008,06,19,01,56,7.20
2008,06,19,01,57,7.20
2008,06,19,01,58,7.30
2008,06,19,01,59,7.30
2008,06,19,02,00,7.30
2008,06,19,02,01,7.30
2008,06,19,02,02,7.30
2008,06,19,02,03,7.30
2008,06,19,02,04,7.30
2008,06,19,02,05,7.30
2008,06,19,02,06,7.30
2008,06,19,02,07,7.30
2008,06,19,02,08,7.30
2008,06,19,02,09,7.30
2008,06,19,02,10,7.30
2008,06,19,02,11,7.30
2008,06,19,02,12,7.30
2008,06,19,02,13,7.30
2008,06,19,02,14,7.30
2008,06,19,02,15,7.30
2008,06,19,02,16,7.30
2008,06,19,02,17,7.30
2008,06,19,02,18,7.30
2008,06,19,02,19,7.30
2008,06,19,02,20,7.30
2008,06,19,02,21,7.30
2008,06,19,02,22,7.30
2008,06,19,02,23,7.30
2008,06,19,02,24,7.30
2008,06,19,02,25,7.30
2008,06,19,02,26,7.30
2008,06,19,02,27,7.30
2008,06,19,02,28,7.30
2008,06,19,02,29,7.30
2008,06,19,02,30,7.30
2008,06,19,02,31,7.30
2008,06,19,02,32,7.30
2008,06,19,02,33,7.30
2008,06,19,02,34,7.30
2008,06,19,02,35,7.30
2008,06,19,02,36,7.30
2008,06,19,02,37,7.30
2008,06,19,02,38,7.30
2008,06,19,02,39,7.30
2008,06,19,02,40,7.30
2008,06,19,02,41,7.30
2008,06,19,02,42,7.30
2008,06,19,02,43,7.30
2008,06,19,02,44,7.30
2008,06,19,02,45,7.30
2008,06,19,02,46,7.30
2008,06,19,02,47,7.30
2008,06,19,02,48,7.30
2008,06,19,02,49,7.30
2008,06,19,02,50,7.30
2008,06,19,02,51,7.30
2008,06,19,02,52,7.30
2008,06,19,02,53,7.40
2008,06,19,02,54,7.40
2008,06,19,02,55,7.40
2008,06,19,02,56,7.40
2008,06,19,02,57,7.40
2008,06,19,02,58,7.40
2008,06,19,02,59,7.40
2008,06,19,03,00,7.40
2008,06,19,03,01,7.40
2008,06,19,03,02,7.40
2008,06,19,03,03,7.40
2008,06,19,03,04,7.40
2008,06,19,03,05,7.30
2008,06,19,03,06,7.30
2008,06,19,03,07,7.40
2008,06,19,03,08,7.40
2008,06,19,03,09,7.40
2008,06,19,03,10,7.40
2008,06,19,03,11,7.40
2008,06,19,03,12,7.50
2008,06,19,03,13,7.50
2008,06,19,03,14,7.50
2008,06,19,03,15,7.50
2008,06,19,03,16,7.50
2008,06,19,03,17,7.50
2008,06,19,03,18,7.50
2008,06,19,03,19,7.50
2008,06,19,03,20,7.50
2008,06,19,03,21,7.60
2008,06,19,03,22,7.60
2008,06,19,03,23,7.60
2008,06,19,03,24,7.60
2008,06,19,03,25,7.60
2008,06,19,03,26,7.60
2008,06,19,03,27,7.60
2008,06,19,03,28,7.60
2008,06,19,03,29,7.60
2008,06,19,03,30,7.60
2008,06,19,03,31,7.60
2008,06,19,03,32,7.60
2008,06,19,03,33,7.60
2008,06,19,03,34,7.60
2008,06,19,03,35,7.60
2008,06,19,03,36,7.60
2008,06,19,03,37,7.70
2008,06,19,03,38,7.70
2008,06,19,03,39,7.70
2008,06,19,03,40,7.70
2008,06,19,03,41,7.70
2008,06,19,03,42,7.70
2008,06,19,03,43,7.70
2008,06,19,03,44,7.70
2008,06,19,03,45,7.70
2008,06,19,03,46,7.70
2008,06,19,03,47,7.70
2008,06,19,03,48,7.70
2008,06,19,03,49,7.70
2008,06,19,03,50,7.70
2008,06,19,03,51,7.70
2008,06,19,03,52,7.70
2008,06,19,03,53,7.70
2008,06,19,03,54,7.70
2008,06,19,03,55,7.70
2008,06,19,03,56,7.80
2008,06,19,03,57,7.80
2008,06,19,03,58,7.80
2008,06,19,03,59,7.80
2008,06,19,04,00,7.80
2008,06,19,04,01,7.80
2008,06,19,04,02,7.80
2008,06,19,04,03,7.80
2008,06,19,04,04,7.80
2008,06,19,04,05,7.80
2008,06,19,04,06,7.80
2008,06,19,04,07,7.80
2008,06,19,04,08,7.80
2008,06,19,04,09,7.80
2008,06,19,04,10,7.80
2008,06,19,04,11,7.80
2008,06,19,04,12,7.90
2008,06,19,04,13,7.90
2008,06,19,04,14,7.90
2008,06,19,04,15,7.90
2008,06,19,04,16,7.90
2008,06,19,04,17,7.90
2008,06,19,04,18,7.90
2008,06,19,04,19,7.90
2008,06,19,04,20,7.90
2008,06,19,04,21,7.90
2008,06,19,04,22,8.00
2008,06,19,04,23,8.00
2008,06,19,04,24,8.00
2008,06,19,04,25,8.00
2008,06,19,04,26,8.00
2008,06,19,04,27,8.00
2008,06,19,04,28,8.00
2008,06,19,04,29,8.00
2008,06,19,04,30,8.00
2008,06,19,04,31,8.00
2008,06,19,04,32,8.10
2008,06,19,04,33,8.10
2008,06,19,04,34,8.10
2008,06,19,04,35,8.10
2008,06,19,04,36,8.10
2008,06,19,04,37,8.20
2008,06,19,04,38,8.20
2008,06,19,04,39,8.20
2008,06,19,04,40,8.20
2008,06,19,04,41,8.20
2008,06,19,04,42,8.20
2008,06,19,04,43,8.20
2008,06,19,04,44,8.20
2008,06,19,04,45,8.20
2008,06,19,04,46,8.20
2008,06,19,04,47,8.20
2008,06,19,04,48,8.20
2008,06,19,04,49,8.20
2008,06,19,04,50,8.20
2008,06,19,04,51,8.20
2008,06,19,04,52,8.20
2008,06,19,04,53,8.20
2008,06,19,04,54,8.20
2008,06,19,04,55,8.20
2008,06,19,04,56,8.20
2008,06,19,04,57,8.30
2008,06,19,04,58,8.30
2008,06,19,04,59,8.30
2008,06,19,05,00,8.30
2008,06,19,05,01,8.30
2008,06,19,05,02,8.30
2008,06,19,05,03,8.30
2008,06,19,05,04,8.30
2008,06,19,05,05,8.30
2008,06,19,05,06,8.30
2008,06,19,05,07,8.40
2008,06,19,05,08,8.40
2008,06,19,05,09,8.40
2008,06,19,05,10,8.40
2008,06,19,05,11,8.40
2008,06,19,05,12,8.40
2008,06,19,05,13,8.40
2008,06,19,05,14,8.40
2008,06,19,05,15,8.40
2008,06,19,05,16,8.40
2008,06,19,05,17,8.40
2008,06,19,05,18,8.40
2008,06,19,05,19,8.40
2008,06,19,05,20,8.40
2008,06,19,05,21,8.50
2008,06,19,05,22,8.40
2008,06,19,05,23,8.40
2008,06,19,05,24,8.40
2008,06,19,05,25,8.40
2008,06,19,05,26,8.40
2008,06,19,05,27,8.40
2008,06,19,05,28,8.40
2008,06,19,05,29,8.40
2008,06,19,05,30,8.40
2008,06,19,05,31,8.40
2008,06,19,05,32,8.40
2008,06,19,05,33,8.40
2008,06,19,05,34,8.40
2008,06,19,05,35,8.40
2008,06,19,05,36,8.40
2008,06,19,05,37,8.40
2008,06,19,05,38,8.40
2008,06,19,05,39,8.50
2008,06,19,05,40,8.50
2008,06,19,05,41,8.50
2008,06,19,05,42,8.50
2008,06,19,05,43,8.50
2008,06,19,05,44,8.50
2008,06,19,05,45,8.50
2008,06,19,05,46,8.50
2008,06,19,05,47,8.50
2008,06,19,05,48,8.50
2008,06,19,05,49,8.50
2008,06,19,05,50,8.50
2008,06,19,05,51,8.50
2008,06,19,05,52,8.60
2008,06,19,05,53,8.60
2008,06,19,05,54,8.60
2008,06,19,05,55,8.60
2008,06,19,05,56,8.50
2008,06,19,05,57,8.50
2008,06,19,05,58,8.50
2008,06,19,05,59,8.50
2008,06,19,06,00,8.50
2008,06,19,06,01,8.50
2008,06,19,06,02,8.50
2008,06,19,06,03,8.50
2008,06,19,06,04,8.50
2008,06,19,06,05,8.50
2008,06,19,06,06,8.50
2008,06,19,06,07,8.60
2008,06,19,06,08,8.60
2008,06,19,06,09,8.60
2008,06,19,06,10,8.60
2008,06,19,06,11,8.60
2008,06,19,06,12,8.60
2008,06,19,06,13,8.60
2008,06,19,06,14,8.60
2008,06,19,06,15,8.60
2008,06,19,06,16,8.60
2008,06,19,06,17,8.60
2008,06,19,06,18,8.60
2008,06,19,06,19,8.60
2008,06,19,06,20,8.60
2008,06,19,06,21,8.60
2008,06,19,06,22,8.60
2008,06,19,06,23,8.60
2008,06,19,06,24,8.60
2008,06,19,06,25,8.60
2008,06,19,06,26,8.70
2008,06,19,06,27,8.70
2008,06,19,06,28,8.70
2008,06,19,06,29,8.70
2008,06,19,06,30,8.70
2008,06,19,06,31,8.70
2008,06,19,06,32,8.70
2008,06,19,06,33,8.70
2008,06,19,06,34,8.70
2008,06,19,06,35,8.70
2008,06,19,06,36,8.70
2008,06,19,06,37,8.70
2008,06,19,06,38,8.70
2008,06,19,06,39,8.70
2008,06,19,06,40,8.70
2008,06,19,06,41,8.70
2008,06,19,06,42,8.70
2008,06,19,06,43,8.70
2008,06,19,06,44,8.70
2008,06,19,06,45,8.70
2008,06,19,06,46,8.70
2008,06,19,06,47,8.70
2008,06,19,06,48,8.70
2008,06,19,06,49,8.70
2008,06,19,06,50,8.70
2008,06,19,06,51,8.70
2008,06,19,06,52,8.80
2008,06,19,06,53,8.80
2008,06,19,06,54,8.80
2008,06,19,06,55,8.90
2008,06,19,06,56,8.90
2008,06,19,06,57,8.90
2008,06,19,06,58,8.90
2008,06,19,06,59,8.90
2008,06,19,07,00,9.00
2008,06,19,07,01,9.00
2008,06,19,07,02,9.00
2008,06,19,07,03,9.10
2008,06,19,07,04,9.10
2008,06,19,07,05,9.10
2008,06,19,07,06,9.10
2008,06,19,07,07,9.10
2008,06,19,07,08,9.20
2008,06,19,07,09,9.20
2008,06,19,07,10,9.20
2008,06,19,07,11,9.20
2008,06,19,07,12,9.20
2008,06,19,07,13,9.20
2008,06,19,07,14,9.20
2008,06,19,07,15,9.30
2008,06,19,07,16,9.30
2008,06,19,07,17,9.30
2008,06,19,07,18,9.30
2008,06,19,07,19,9.30
2008,06,19,07,20,9.40
2008,06,19,07,21,9.40
2008,06,19,07,22,9.40
2008,06,19,07,23,9.40
2008,06,19,07,24,9.50
2008,06,19,07,25,9.50
2008,06,19,07,26,9.50
2008,06,19,07,27,9.50
2008,06,19,07,28,9.50
2008,06,19,07,29,9.60
2008,06,19,07,30,9.60
2008,06,19,07,31,9.60
2008,06,19,07,32,9.60
2008,06,19,07,33,9.60
2008,06,19,07,34,9.70
2008,06,19,07,35,9.70
2008,06,19,07,36,9.70
2008,06,19,07,37,9.70
2008,06,19,07,38,9.70
2008,06,19,07,39,9.70
2008,06,19,07,40,9.70
2008,06,19,07,41,9.70
2008,06,19,07,42,9.70
2008,06,19,07,43,9.80
2008,06,19,07,44,9.80
2008,06,19,07,45,9.80
2008,06,19,07,46,9.90
2008,06,19,07,47,9.90
2008,06,19,07,48,9.90
2008,06,19,07,49,9.90
2008,06,19,07,50,9.90
2008,06,19,07,51,10.00
2008,06,19,07,52,10.10
2008,06,19,07,53,10.10
2008,06,19,07,54,10.10
2008,06,19,07,55,10.10
2008,06,19,07,56,10.10
2008,06,19,07,57,10.20
2008,06,19,07,58,10.20
2008,06,19,07,59,10.30
2008,06,19,08,00,10.30
2008,06,19,08,01,10.30
2008,06,19,08,02,10.40
2008,06,19,08,03,10.40
2008,06,19,08,04,10.40
2008,06,19,08,05,10.40
2008,06,19,08,06,10.40
2008,06,19,08,07,10.40
2008,06,19,08,08,10.40
2008,06,19,08,09,10.60
2008,06,19,08,10,10.60
2008,06,19,08,11,10.60
2008,06,19,08,12,10.60
2008,06,19,08,13,10.60
2008,06,19,08,14,10.60
2008,06,19,08,15,10.60
2008,06,19,08,16,10.60
2008,06,19,08,17,10.70
2008,06,19,08,18,10.70
2008,06,19,08,19,10.70
2008,06,19,08,20,10.80
2008,06,19,08,21,10.80
2008,06,19,08,22,10.80
2008,06,19,08,23,10.80
2008,06,19,08,24,10.80
2008,06,19,08,25,10.80
2008,06,19,08,26,10.80
2008,06,19,08,27,10.80
2008,06,19,08,28,10.80
2008,06,19,08,29,10.90
2008,06,19,08,30,10.90
2008,06,19,08,31,10.90
2008,06,19,08,32,10.90
2008,06,19,08,33,10.90
2008,06,19,08,34,10.90
2008,06,19,08,35,10.90
2008,06,19,08,36,10.90
2008,06,19,08,37,10.90
2008,06,19,08,38,10.90
2008,06,19,08,39,10.90
2008,06,19,08,40,10.90
2008,06,19,08,41,10.90
2008,06,19,08,42,10.90
2008,06,19,08,43,10.90
2008,06,19,08,44,10.90
2008,06,19,08,45,10.90
2008,06,19,08,46,10.90
2008,06,19,08,47,10.90
2008,06,19,08,48,10.90
2008,06,19,08,49,10.90
2008,06,19,08,50,10.90
2008,06,19,08,51,10.90
2008,06,19,08,52,10.90
2008,06,19,08,53,10.90
2008,06,19,08,54,10.90
2008,06,19,08,55,10.90
2008,06,19,08,56,11.00
2008,06,19,08,57,10.90
2008,06,19,08,58,11.00
2008,06,19,08,59,11.00
2008,06,19,09,00,11.00
2008,06,19,09,01,11.10
2008,06,19,09,02,11.10
2008,06,19,09,03,11.10
2008,06,19,09,04,11.10
2008,06,19,09,05,11.10
2008,06,19,09,06,11.10
2008,06,19,09,07,11.10
2008,06,19,09,08,11.10
2008,06,19,09,09,11.10
2008,06,19,09,10,11.10
2008,06,19,09,11,11.10
2008,06,19,09,12,11.10
2008,06,19,09,13,11.10
2008,06,19,09,14,11.10
2008,06,19,09,15,11.10
2008,06,19,09,16,11.10
2008,06,19,09,17,11.10
2008,06,19,09,18,11.20
2008,06,19,09,19,11.20
2008,06,19,09,20,11.20
2008,06,19,09,21,11.20
2008,06,19,09,22,11.20
2008,06,19,09,23,11.20
2008,06,19,09,24,11.20
2008,06,19,09,25,11.20
2008,06,19,09,26,11.20
2008,06,19,09,27,11.20
2008,06,19,09,28,11.20
2008,06,19,09,29,11.20
2008,06,19,09,30,11.20
2008,06,19,09,31,11.30
2008,06,19,09,32,11.30
2008,06,19,09,33,11.30
2008,06,19,09,34,11.30
2008,06,19,09,35,11.30
2008,06,19,09,36,11.30
2008,06,19,09,37,11.40
2008,06,19,09,38,11.40
2008,06,19,09,39,11.40
2008,06,19,09,40,11.40
2008,06,19,09,41,11.40
2008,06,19,09,42,11.40
2008,06,19,09,43,11.40
2008,06,19,09,44,11.50
2008,06,19,09,45,11.60
2008,06,19,09,46,11.60
2008,06,19,09,47,11.60
2008,06,19,09,48,11.60
2008,06,19,09,49,11.60
2008,06,19,09,50,11.60
2008,06,19,09,51,11.60
2008,06,19,09,52,11.60
2008,06,19,09,53,11.60
2008,06,19,09,54,11.60
2008,06,19,09,55,11.60
2008,06,19,09,56,11.70
2008,06,19,09,57,11.70
2008,06,19,09,58,11.70
2008,06,19,09,59,11.70
2008,06,19,10,00,11.80
2008,06,19,10,01,11.80
2008,06,19,10,02,11.80
2008,06,19,10,03,11.80
2008,06,19,10,04,11.80
2008,06,19,10,05,11.80
2008,06,19,10,06,11.80
2008,06,19,10,07,11.80
2008,06,19,10,08,11.80
2008,06,19,10,09,11.80
2008,06,19,10,10,11.80
2008,06,19,10,11,11.80
2008,06,19,10,12,11.80
2008,06,19,10,13,11.80
2008,06,19,10,14,11.80
2008,06,19,10,15,11.80
2008,06,19,10,16,11.80
2008,06,19,10,17,11.80
2008,06,19,10,18,11.80
2008,06,19,10,19,11.80
2008,06,19,10,20,11.80
2008,06,19,10,21,11.80
2008,06,19,10,22,11.80
2008,06,19,10,23,11.80
2008,06,19,10,24,11.80
2008,06,19,10,25,11.80
2008,06,19,10,26,11.80
2008,06,19,10,27,11.90
2008,06,19,10,28,11.90
2008,06,19,10,29,11.90
2008,06,19,10,30,12.00
2008,06,19,10,31,12.00
2008,06,19,10,32,12.00
2008,06,19,10,33,12.00
2008,06,19,10,34,12.00
2008,06,19,10,35,12.10
2008,06,19,10,36,12.10
2008,06,19,10,37,12.10
2008,06,19,10,38,12.10
2008,06,19,10,39,12.10
2008,06,19,10,40,12.10
2008,06,19,10,41,12.10
2008,06,19,10,42,12.10
2008,06,19,10,43,12.20
2008,06,19,10,44,12.20
2008,06,19,10,45,12.20
2008,06,19,10,46,12.20
2008,06,19,10,47,12.30
2008,06,19,10,48,12.30
2008,06,19,10,49,12.30
2008,06,19,10,50,12.30
2008,06,19,10,51,12.30
2008,06,19,10,52,12.30
2008,06,19,10,53,12.30
2008,06,19,10,54,12.30
2008,06,19,10,55,12.30
2008,06,19,10,56,12.30
2008,06,19,10,57,12.30
2008,06,19,10,58,12.40
2008,06,19,10,59,12.40
2008,06,19,11,00,12.40
2008,06,19,11,01,12.50
2008,06,19,11,02,12.50
2008,06,19,11,03,12.50
2008,06,19,11,04,12.50
2008,06,19,11,05,12.50
2008,06,19,11,06,12.50
2008,06,19,11,07,12.50
2008,06,19,11,08,12.50
2008,06,19,11,09,12.40
2008,06,19,11,10,12.40
2008,06,19,11,11,12.40
2008,06,19,11,12,12.40
2008,06,19,11,13,12.40
2008,06,19,11,14,12.40
2008,06,19,11,15,12.40
2008,06,19,11,16,12.40
2008,06,19,11,17,12.40
2008,06,19,11,18,12.50
2008,06,19,11,19,12.50
2008,06,19,11,20,12.50
2008,06,19,11,21,12.50
2008,06,19,11,22,12.50
2008,06,19,11,23,12.50
2008,06,19,11,24,12.50
2008,06,19,11,25,12.50
2008,06,19,11,26,12.50
2008,06,19,11,27,12.50
2008,06,19,11,28,12.50
2008,06,19,11,29,12.50
2008,06,19,11,30,12.50
2008,06,19,11,31,12.50
2008,06,19,11,32,12.50
2008,06,19,11,33,12.50
2008,06,19,11,34,12.50
2008,06,19,11,35,12.60
2008,06,19,11,36,12.60
2008,06,19,11,37,12.60
2008,06,19,11,38,12.60
2008,06,19,11,39,12.60
2008,06,19,11,40,12.60
2008,06,19,11,41,12.60
2008,06,19,11,42,12.70
2008,06,19,11,43,12.70
2008,06,19,11,44,12.70
2008,06,19,11,45,12.70
2008,06,19,11,46,12.80
2008,06,19,11,47,12.80
2008,06,19,11,48,12.80
2008,06,19,11,49,12.80
2008,06,19,11,50,12.80
2008,06,19,11,51,12.80
2008,06,19,11,52,12.90
2008,06,19,11,53,12.90
2008,06,19,11,54,12.90
2008,06,19,11,55,12.90
2008,06,19,11,56,12.90
2008,06,19,11,57,12.90
2008,06,19,11,58,12.90
2008,06,19,11,59,12.90
2008,06,19,12,00,12.90
2008,06,19,12,01,12.90
2008,06,19,12,02,12.90
2008,06,19,12,03,12.80
2008,06,19,12,04,12.80
2008,06,19,12,05,12.80
2008,06,19,12,06,12.80
2008,06,19,12,07,12.80
2008,06,19,12,08,12.80
2008,06,19,12,09,12.80
2008,06,19,12,10,12.80
2008,06,19,12,11,12.80
2008,06,19,12,12,12.80
2008,06,19,12,13,12.80
2008,06,19,12,14,12.80
2008,06,19,12,15,12.80
2008,06,19,12,16,12.80
2008,06,19,12,17,12.80
2008,06,19,12,18,12.90
2008,06,19,12,19,12.90
2008,06,19,12,20,12.90
2008,06,19,12,21,12.90
2008,06,19,12,22,12.90
2008,06,19,12,23,12.90
2008,06,19,12,24,12.90
2008,06,19,12,25,12.90
2008,06,19,12,26,13.00
2008,06,19,12,27,13.00
2008,06,19,12,28,13.00
2008,06,19,12,29,13.00
2008,06,19,12,30,13.00
2008,06,19,12,31,13.10
2008,06,19,12,32,13.10
2008,06,19,12,33,13.10
2008,06,19,12,34,13.20
2008,06,19,12,35,13.20
2008,06,19,12,36,13.20
2008,06,19,12,37,13.30
2008,06,19,12,38,13.30
2008,06,19,12,39,13.30
2008,06,19,12,40,13.30
2008,06,19,12,41,13.30
2008,06,19,12,42,13.30
2008,06,19,12,43,13.40
2008,06,19,12,44,13.40
2008,06,19,12,45,13.50
2008,06,19,12,46,13.50
2008,06,19,12,47,13.50
2008,06,19,12,48,13.60
2008,06,19,12,49,13.60
2008,06,19,12,50,13.60
2008,06,19,12,51,13.60
2008,06,19,12,52,13.60
2008,06,19,12,53,13.70
2008,06,19,12,54,13.70
2008,06,19,12,55,13.80
2008,06,19,12,56,13.80
2008,06,19,12,57,13.80
2008,06,19,12,58,13.90
2008,06,19,12,59,13.90
2008,06,19,13,00,14.00
2008,06,19,13,01,14.00
2008,06,19,13,02,14.10
2008,06,19,13,03,14.20
2008,06,19,13,04,14.20
2008,06,19,13,05,14.20
2008,06,19,13,06,14.20
2008,06,19,13,07,14.20
2008,06,19,13,08,14.30
2008,06,19,13,09,14.30
2008,06,19,13,10,14.30
2008,06,19,13,11,14.30
2008,06,19,13,12,14.30
2008,06,19,13,13,14.30
2008,06,19,13,14,14.30
2008,06,19,13,15,14.30
2008,06,19,13,16,14.30
2008,06,19,13,17,14.30
2008,06,19,13,18,14.30
2008,06,19,13,19,14.40
2008,06,19,13,20,14.40
2008,06,19,13,21,14.40
2008,06,19,13,22,14.40
2008,06,19,13,23,14.50
2008,06,19,13,24,14.50
2008,06,19,13,25,14.60
2008,06,19,13,26,14.60
2008,06,19,13,27,14.70
2008,06,19,13,28,14.80
2008,06,19,13,29,15.00
2008,06,19,13,30,15.10
2008,06,19,13,31,15.20
2008,06,19,13,32,15.30
2008,06,19,13,33,15.40
2008,06,19,13,34,15.50
2008,06,19,13,35,15.50
2008,06,19,13,36,15.50
2008,06,19,13,37,15.50
2008,06,19,13,38,15.50
2008,06,19,13,39,15.60
2008,06,19,13,40,15.60
2008,06,19,13,41,15.60
2008,06,19,13,42,15.60
2008,06,19,13,43,15.60
2008,06,19,13,44,15.60
2008,06,19,13,45,15.60
2008,06,19,13,46,15.60
2008,06,19,13,47,15.50
2008,06,19,13,48,15.50
2008,06,19,13,49,15.50
2008,06,19,13,50,15.40
2008,06,19,13,51,15.40
2008,06,19,13,52,15.50
2008,06,19,13,53,15.50
2008,06,19,13,54,15.50
2008,06,19,13,55,15.50
2008,06,19,13,56,15.50
2008,06,19,13,57,15.40
2008,06,19,13,58,15.40
2008,06,19,13,59,15.40
2008,06,19,14,00,15.40
2008,06,19,14,01,15.40
2008,06,19,14,02,15.40
2008,06,19,14,03,15.40
2008,06,19,14,04,15.40
2008,06,19,14,05,15.40
2008,06,19,14,06,15.40
2008,06,19,14,07,15.30
2008,06,19,14,08,15.30
2008,06,19,14,09,15.30
2008,06,19,14,10,15.30
2008,06,19,14,11,15.30
2008,06,19,14,12,15.30
2008,06,19,14,13,15.30
2008,06,19,14,14,15.30
2008,06,19,14,15,15.30
2008,06,19,14,16,15.20
2008,06,19,14,17,15.20
2008,06,19,14,18,15.20
2008,06,19,14,19,15.20
2008,06,19,14,20,15.20
2008,06,19,14,21,15.30
2008,06,19,14,22,15.30
2008,06,19,14,23,15.30
2008,06,19,14,24,15.30
2008,06,19,14,25,15.30
2008,06,19,14,26,15.30
2008,06,19,14,27,15.30
2008,06,19,14,28,15.30
2008,06,19,14,29,15.30
2008,06,19,14,30,15.30
2008,06,19,14,31,15.30
2008,06,19,14,32,15.20
2008,06,19,14,33,15.20
2008,06,19,14,34,15.20
2008,06,19,14,35,15.20
2008,06,19,14,36,15.20
2008,06,19,14,37,15.20
2008,06,19,14,38,15.20
2008,06,19,14,39,15.30
2008,06,19,14,40,15.30
2008,06,19,14,41,15.30
2008,06,19,14,42,15.40
2008,06,19,14,43,15.50
2008,06,19,14,44,15.60
2008,06,19,14,45,15.70
2008,06,19,14,46,15.80
2008,06,19,14,47,15.90
2008,06,19,14,48,16.00
2008,06,19,14,49,16.20
2008,06,19,14,50,16.30
2008,06,19,14,51,16.40
2008,06,19,14,52,16.50
2008,06,19,14,53,16.70
2008,06,19,14,54,16.80
2008,06,19,14,55,17.00
2008,06,19,14,56,17.20
2008,06,19,14,57,17.30
2008,06,19,14,58,17.40
2008,06,19,14,59,17.50
2008,06,19,15,00,17.60
2008,06,19,15,01,17.80
2008,06,19,15,02,17.90
2008,06,19,15,03,18.10
2008,06,19,15,04,18.10
2008,06,19,15,05,18.10
2008,06,19,15,06,18.10
2008,06,19,15,07,18.10
2008,06,19,15,08,17.90
2008,06,19,15,09,17.90
2008,06,19,15,10,17.90
2008,06,19,15,11,17.80
2008,06,19,15,12,17.70
2008,06,19,15,13,17.60
2008,06,19,15,14,17.60
2008,06,19,15,15,17.60
2008,06,19,15,16,17.70
2008,06,19,15,17,17.80
2008,06,19,15,18,17.80
2008,06,19,15,19,17.90
2008,06,19,15,20,17.90
2008,06,19,15,21,17.90
2008,06,19,15,22,17.90
2008,06,19,15,23,17.90
2008,06,19,15,24,17.90
2008,06,19,15,25,17.80
2008,06,19,15,26,17.70
2008,06,19,15,27,17.70
2008,06,19,15,28,17.70
2008,06,19,15,29,17.70
2008,06,19,15,30,17.70
2008,06,19,15,31,17.60
2008,06,19,15,32,17.60
2008,06,19,15,33,17.60
2008,06,19,15,34,17.60
2008,06,19,15,35,17.60
2008,06,19,15,36,17.60
2008,06,19,15,37,17.60
2008,06,19,15,38,17.60
2008,06,19,15,39,17.60
2008,06,19,15,40,17.60
2008,06,19,15,41,17.60
2008,06,19,15,42,17.60
2008,06,19,15,43,17.50
2008,06,19,15,44,17.50
2008,06,19,15,45,17.40
2008,06,19,15,46,17.30
2008,06,19,15,47,17.30
2008,06,19,15,48,17.20
2008,06,19,15,49,17.20
2008,06,19,15,50,17.10
2008,06,19,15,51,17.10
2008,06,19,15,52,17.00
2008,06,19,15,53,17.00
2008,06,19,15,54,17.00
2008,06,19,15,55,17.00
2008,06,19,15,56,17.00
2008,06,19,15,57,17.00
2008,06,19,15,58,17.00
2008,06,19,15,59,17.00
2008,06,19,16,00,16.90
2008,06,19,16,01,16.90
2008,06,19,16,02,16.90
2008,06,19,16,03,16.90
2008,06,19,16,04,16.90
2008,06,19,16,05,17.00
2008,06,19,16,06,17.00
2008,06,19,16,07,17.00
2008,06,19,16,08,17.00
2008,06,19,16,09,17.00
2008,06,19,16,10,17.10
2008,06,19,16,11,17.10
2008,06,19,16,12,17.10
2008,06,19,16,13,17.10
2008,06,19,16,14,17.10
2008,06,19,16,15,17.10
2008,06,19,16,16,17.10
2008,06,19,16,17,17.10
2008,06,19,16,18,17.10
2008,06,19,16,19,17.10
2008,06,19,16,20,17.10
2008,06,19,16,21,17.10
2008,06,19,16,22,17.10
2008,06,19,16,23,17.10
2008,06,19,16,24,17.10
2008,06,19,16,25,17.10
2008,06,19,16,26,17.10
2008,06,19,16,27,17.10
2008,06,19,16,28,17.10
2008,06,19,16,29,17.10
2008,06,19,16,30,17.10
2008,06,19,16,31,17.10
2008,06,19,16,32,17.10
2008,06,19,16,33,17.10
2008,06,19,16,34,17.10
2008,06,19,16,35,17.10
2008,06,19,16,36,17.10
2008,06,19,16,37,17.10
2008,06,19,16,38,17.10
2008,06,19,16,39,17.10
2008,06,19,16,40,17.10
2008,06,19,16,41,17.10
2008,06,19,16,42,17.10
2008,06,19,16,43,17.20
2008,06,19,16,44,17.20
2008,06,19,16,45,17.20
2008,06,19,16,46,17.20
2008,06,19,16,47,17.20
2008,06,19,16,48,17.30
2008,06,19,16,49,17.30
2008,06,19,16,50,17.30
2008,06,19,16,51,17.30
2008,06,19,16,52,17.30
2008,06,19,16,53,17.30
2008,06,19,16,54,17.30
2008,06,19,16,55,17.30
2008,06,19,16,56,17.30
2008,06,19,16,57,17.30
2008,06,19,16,58,17.30
2008,06,19,16,59,17.30
2008,06,19,17,00,17.30
2008,06,19,17,01,17.20
2008,06,19,17,02,17.20
2008,06,19,17,03,17.20
2008,06,19,17,04,17.10
2008,06,19,17,05,17.10
2008,06,19,17,06,17.00
2008,06,19,17,07,17.00
2008,06,19,17,08,17.00
2008,06,19,17,09,17.00
2008,06,19,17,10,16.90
2008,06,19,17,11,16.90
2008,06,19,17,12,16.90
2008,06,19,17,13,16.90
2008,06,19,17,14,16.90
2008,06,19,17,15,16.90
2008,06,19,17,16,16.90
2008,06,19,17,17,16.90
2008,06,19,17,18,16.90
2008,06,19,17,19,16.80
2008,06,19,17,20,16.80
2008,06,19,17,21,16.80
2008,06,19,17,22,16.80
2008,06,19,17,23,16.80
2008,06,19,17,24,16.80
2008,06,19,17,25,16.70
2008,06,19,17,26,16.70
2008,06,19,17,27,16.70
2008,06,19,17,28,16.70
2008,06,19,17,29,16.70
2008,06,19,17,30,16.70
2008,06,19,17,31,16.70
2008,06,19,17,32,16.70
2008,06,19,17,33,16.70
2008,06,19,17,34,16.70
2008,06,19,17,35,16.70
2008,06,19,17,36,16.70
2008,06,19,17,37,16.70
2008,06,19,17,38,16.70
2008,06,19,17,39,16.70